Location: Newark
(5.5500°N, 0.2500°W)
Time: 08:26:33
(UTC+00:00)

N. Korean satellite - Visible Passes

Search period start: 20 September 2019 00:00
Search period end: 30 September 2019 00:00
Orbit: 455 x 509 km, 97.2° (Epoch: 19 September)

Date Brightness Start Highest point End Pass type
(mag) Time Alt. Az. Time Alt. Az. Time Alt. Az.
20 Sep 9.0 05:10:43 10° NE 05:13:39 26° E 05:16:37 10° SSE visible
21 Sep 10.3 04:47:55 10° E 04:48:29 10° E 04:49:03 10° ESE visible
24 Sep 9.5 05:03:31 10° NE 05:06:09 20° E 05:08:49 10° SSE visible
24 Sep 10.4 18:28:46 10° WSW 18:29:48 11° W 18:30:49 10° W visible
27 Sep 8.1 05:20:30 10° NNE 05:23:48 41° E 05:27:09 10° S visible
28 Sep 9.8 04:56:25 10° ENE 04:58:38 16° E 05:00:52 10° SE visible
28 Sep 10.0 18:20:19 10° SW 18:22:17 14° W 18:24:14 10° WNW visible
